User: anonymous   Login
Location: Unspecified
(0.0000°N, 0.0000°E)
Time: 06:48:21
(UTC+02:00)
Language:

Cosmos 1092 Rocket - Orbit

View from above orbital plane
View from above orbital plane
View from above satellite
View from above satellite

Ground track
Ground track

The orbit data is extracted from the following two-line orbital elements,

1 11327U 79030B   18111.47692564 +.00000101 +00000-0 +86908-4 0  9995
2 11327 082.9501 066.9528 0028687 038.8107 100.1530 13.76964464961359
Epoch (UTC): 21 April 2018 11:26:46
Eccentricity: 0.0028687
inclination: 82.9501°
perigee height: 953 km
apogee height: 996 km
right ascension of ascending node: 66.9528°
argument of perigee: 38.8107°
revolutions per day: 13.76964464
mean anomaly at epoch: 100.1530°
orbit number at epoch: 96135

The dashed part of the orbit path shows where the satellite is in the earth's shadow,  

DLR